Lid_Strength_Index
5 5 5 5 6 7 4 3 7 2 1 6 6 8 6 7 6 5 6 7 7 8 7 9 8 9 8 6 7 9 7 11 13 10 7 7 9 11 11 14 14 13 15 16
5 5 6 6 6 6 7 5 5 2 3 8 8 6 6 6 6 6 6 7 7 7 8 9 7 7 6 6 7 9 8 11 13 11 9 9 10 9 9 11 11 14 16 16
5 6 6 6 6 6 7 5 8 5 4 4 6 7 7 7 5 5 5 6 6 7 8 7 8 7 6 5 7 2 6 11 12 14 12 9 10 9 9 11 14 13 13 14
6 6 6 6 7 7 6 4 7 5 9 7 6 6 6 7 7 6 5 6 6 7 9 8 9 7 6 6 6 7 9 12 9 10 8 8 9 9 9 11 11 13 12 12
5 6 6 6 7 7 4 7 7 6 7 6 6 7 7 7 6 6 7 7 6 6 9 9 10 8 8 9 7 9 8 11 8 11 8 9 10 9 9 10 10 11 10 11
5 5 6 6 7 7 6 6 6 5 8 7 7 7 7 7 6 6 5 6 7 7 7 6 6 6 6 7 8 9 9 11 11 13 9 9 12 10 10 9 9 10 12 10
4 4 4 5 6 7 8 6 7 6 9 7 7 7 7 7 7 8 6 5 7 5 4 6 6 6 6 6 6 8 10 10 10 12 11 15 10 8 8 9 8 8 10 8
4 4 4 4 5 5 7 5 8 9 11 8 8 8 7 7 6 7 6 5 4 3 6 9 10 10 9 8 7 8 8 10 12 13 13 11 9 8 9 9 9 7 8 7
5 5 4 5 5 5 6 4 5 7 10 10 10 10 9 10 11 7 6 4 4 4 7 9 13 14 11 11 9 7 8 9 10 12 15 15 10 7 6 7 11 6 6 7
5 5 5 4 4 5 7 6 5 7 9 8 9 10 10 8 10 11 8 8 7 5 9 11 12 12 9 11 11 11 10 11 11 11 13 11 7 6 6 12 11 7 6 6
5 5 5 5 5 4 6 7 5 6 8 8 7 8 9 9 9 11 10 9 9 8 11 11 11 11 10 10 9 10 11 12 12 12 12 14 6 6 10 8 7 6 6 6
5 5 5 5 5 5 5 9 6 5 7 8 6 6 6 6 7 9 10 11 10 9 12 11 10 11 10 11 14 8 11 9 11 10 10 7 6 7 5 6 6 6 6 5
5 5 5 5 5 5 6 8 7 6 7 8 7 8 6 4 4 5 8 8 8 9 9 11 10 11 9 13 12 10 8 7 10 10 8 7 5 5 5 5 6 5 5 5
5 5 5 5 5 5 5 8 6 6 7 10 8 6 8 5 5 5 5 6 6 7 7 9 10 11 7 10 9 10 8 8 9 9 7 7 6 5 5 4 5 5 4 4
5 5 5 5 5 5 6 6 5 5 7 11 10 8 6 5 5 5 5 6 6 6 7 8 9 8 8 8 9 10 7 9 10 11 7 8 7 5 4 4 4 4 5 5
5 5 5 5 5 5 7 6 4 5 5 10 11 6 6 5 5 5 5 5 6 6 7 7 6 6 7 9 10 7 8 7 6 8 7 5 5 4 4 4 3 4 4 5
5 5 5 4 5 6 7 8 6 5 4 7 10 9 5 5 5 5 4 4 4 5 6 7 6 6 6 8 10 7 5 5 6 6 6 7 6 6 4 4 3 3 4 4
5 5 5 4 5 5 6 4 5 5 6 6 9 9 7 5 7 7 4 6 5 6 6 6 7 6 6 9 7 6 5 5 5 5 5 6 6 5 5 4 3 4 4 4
5 5 4 4 5 5 5 3 3 3 5 8 8 9 10 4 5 4 4 4 7 5 7 6 6 7 10 8 7 6 5 5 5 5 4 4 5 5 5 5 4 5 5 4
5 4 5 6 6 2 3 5 6 6 5 5 8 5 8 5 6 6 6 6 8 9 7 5 7 8 6 6 6 5 5 5 4 6 7 6 6 6 5 5 5 4 5 4
6 8 8 6 2 5 5 7 8 6 8 6 6 6 8 4 8 8 6 8 7 10 8 8 9 9 8 6 6 5 4 4 4 4 4 4 5 5 5 6 5 5 4 4
6 7 6 5 6 7 8 8 7 7 8 6 8 6 5 5 4 7 7 9 8 12 6 9 11 9 7 6 5 5 4 4 4 4 4 4 4 3 4 6 6 5 3 3
5 6 8 8 8 11 10 11 9 10 6 6 6 7 5 5 5 7 8 10 11 6 10 11 9 8 6 5 5 5 4 4 5 4 4 4 4 3 4 5 6 5 3 3
8 9 13 10 9 8 7 7 7 5 5 5 5 6 6 6 8 7 10 9 8 12 12 11 9 7 6 5 4 5 5 4 5 5 5 5 4 4 3 3 3 4 4 3
9 8 12 9 6 5 5 4 5 4 4 5 6 6 6 8 8 8 9 11 13 11 12 9 7 6 6 6 5 5 4 4 5 5 5 5 5 4 4 3 3 3 3 4
8 8 9 7 7 7 6 5 5 4 4 4 5 8 9 10 10 11 12 12 13 10 8 7 6 6 5 5 5 4 4 4 4 4 5 5 5 5 4 3 3 3 3 4
9 9 6 6 6 6 5 5 5 3 5 8 8 10 11 9 12 12 10 12 9 8 6 5 5 5 5 5 4 4 4 4 4 4 5 6 5 4 4 4 3 3 3 3